IRIDIUM 106 1 41917U 17003A 26258.37595002 .00000189 00000+0 60574-4 0 9990 2 41917 86.3942 50.8181 0001936 85.3948 274.7469 14.34216798506134 IRIDIUM 103 1 41918U 17003B 26258.43303434 .00000002 00000+0 -63525-5 0 9999 2 41918 86.3940 50.6941 0002191 89.3858 270.7589 14.34216873506169 IRIDIUM 109 1 41919U 17003C 26258.36961189 .00000179 00000+0 57032-4 0 9998 2 41919 86.3941 50.7812 0002155 91.6648 268.4795 14.34214140506126 IRIDIUM 102 1 41920U 17003D 26257.91928375 .00000141 00000+0 43385-4 0 9995 2 41920 86.3942 50.8913 0002078 91.9662 268.1772 14.34218889506143 IRIDIUM 105 1 41921U 17003E 26258.29649586 .00000092 00000+0 25909-4 0 9999 2 41921 86.4009 19.1863 0002301 98.4795 261.6662 14.34217799508056 IRIDIUM 104 1 41922U 17003F 26258.42036411 .00000184 00000+0 58693-4 0 9990 2 41922 86.3943 50.7254 0002433 94.4033 265.7441 14.34219754506203 IRIDIUM 114 1 41923U 17003G 26258.42669560 .00000205 00000+0 65978-4 0 9996 2 41923 86.3944 50.7058 0002216 91.1821 268.9629 14.34216323506184 IRIDIUM 108 1 41924U 17003H 26257.61775971 .00000061 00000+0 14580-4 0 9994 2 41924 86.4001 19.3544 0002145 95.9652 264.1788 14.34217438507921 IRIDIUM 112 1 41925U 17003J 26257.92562955 .00000155 00000+0 48305-4 0 9991 2 41925 86.3938 50.7532 0002176 92.6359 267.5086 14.34218613506134 IRIDIUM 111 1 41926U 17003K 26258.40132429 .00000062 00000+0 14939-4 0 9998 2 41926 86.3943 50.6268 0002132 89.7802 270.3638 14.34215870506180 IRIDIUM 113 1 42803U 17039A 26257.33475848 .00000009 00000+0 -39616-5 0 9990 2 42803 86.3924 284.9155 0002217 93.5911 266.5539 14.34217632483964 IRIDIUM 123 1 42804U 17039B 26258.42276543 .00000020 00000+0 39957-7 0 9995 2 42804 86.3980 315.9391 0002116 90.3046 269.8392 14.34217107482886 IRIDIUM 120 1 42805U 17039C 26258.51448038 .00000000 00000+0 -70105-5 0 9993 2 42805 86.3912 284.1925 0002035 90.6438 269.4991 14.34217528484127 IRIDIUM 115 1 42806U 17039D 26258.38732602 .00000170 00000+0 44590-4 0 9997 2 42806 86.4448 284.3872 0002345 86.7831 273.3638 14.43281722487271 IRIDIUM 118 1 42807U 17039E 26258.45447907 .00000042 00000+0 80070-5 0 9999 2 42807 86.3983 315.9240 0002255 95.5953 264.5500 14.34216886482889 IRIDIUM 117 1 42808U 17039F 26257.91535762 .00000008 00000+0 -43604-5 0 9992 2 42808 86.3981 316.1056 0002156 93.2614 266.8829 14.34216926482834 IRIDIUM 126 1 42809U 17039G 26258.15003381 .00000150 00000+0 46575-4 0 9993 2 42809 86.3982 316.0605 0002331 93.8287 266.3175 14.34217750482848 IRIDIUM 124 1 42810U 17039H 26258.25181190 .00000130 00000+0 32754-4 0 9993 2 42810 86.4434 252.6820 0002371 87.5950 272.5522 14.43279801488103 IRIDIUM 128 1 42811U 17039J 26258.48961546 .00000018 00000+0 -46231-6 0 9993 2 42811 86.4022 347.4153 0002014 93.9020 266.2406 14.34216995482922 IRIDIUM 121 1 42812U 17039K 26257.61091277 -.00000013 00000+0 -11542-4 0 9994 2 42812 86.3982 316.3137 0002072 94.7746 265.3686 14.34216520482645 IRIDIUM 133 1 42955U 17061A 26258.52132767 .00000168 00000+0 52761-4 0 9995 2 42955 86.4028 347.5220 0002163 94.2116 265.9327 14.34218200467728 IRIDIUM 100 1 42956U 17061B 26258.23591126 .00000088 00000+0 24190-4 0 9998 2 42956 86.4027 347.5577 0002143 94.7059 265.4381 14.34217381467681 IRIDIUM 122 1 42957U 17061C 26258.48327111 -.00000036 00000+0 -19786-4 0 9997 2 42957 86.4023 347.4549 0002129 93.2857 266.8582 14.34216534467722 IRIDIUM 129 1 42958U 17061D 26258.50864295 .00000077 00000+0 20375-4 0 9999 2 42958 86.4027 347.5122 0002355 98.9489 261.1973 14.34217519467747 IRIDIUM 119 1 42959U 17061E 26258.54669772 .00000176 00000+0 55717-4 0 9995 2 42959 86.4028 347.4927 0002274 94.1323 266.0133 14.34218634467769 IRIDIUM 107 1 42960U 17061F 26257.86804109 .00000077 00000+0 20569-4 0 9993 2 42960 86.4029 347.7976 0002248 88.5620 271.5834 14.34217695467672 IRIDIUM 132 1 42961U 17061G 26258.22322611 .00000074 00000+0 19388-4 0 9992 2 42961 86.4028 347.6283 0002207 95.0359 265.1088 14.34217758467725 IRIDIUM 136 1 42962U 17061H 26258.53401316 .00000039 00000+0 69652-5 0 9998 2 42962 86.4029 347.5056 0002180 95.4325 264.7119 14.34217450467786 IRIDIUM 139 1 42963U 17061J 26258.54035559 .00000068 00000+0 17169-4 0 9999 2 42963 86.4031 347.5664 0002176 94.1556 265.9888 14.34217597467791 IRIDIUM 125 1 42964U 17061K 26258.31836579 .00000099 00000+0 28315-4 0 9995 2 42964 86.4031 347.7217 0002655 88.5890 271.5610 14.34218122467777 IRIDIUM 135 1 43070U 17083A 26258.01341597 .00000024 00000+0 14907-5 0 9997 2 43070 86.3917 284.4626 0002143 92.4401 267.7040 14.34217595457027 IRIDIUM 138 1 43071U 17083B 26258.03878643 -.00000039 00000+0 -21025-4 0 9993 2 43071 86.3930 284.1611 0002272 92.3411 267.8045 14.34217236457014 IRIDIUM 116 1 43072U 17083C 26258.07684150 .00000016 00000+0 -11789-5 0 9997 2 43072 86.3915 284.4211 0002017 88.6366 271.5061 14.34217741457056 IRIDIUM 130 1 43073U 17083D 26258.04512891 -.00000002 00000+0 -77123-5 0 9997 2 43073 86.3927 284.7185 0002042 86.6110 273.5320 14.34217547456992 IRIDIUM 151 1 43074U 17083E 26258.50813773 .00000004 00000+0 -57545-5 0 9999 2 43074 86.3919 284.3002 0002069 91.9402 268.2031 14.34217546457080 IRIDIUM 134 1 43075U 17083F 26258.05781401 .00000015 00000+0 -16810-5 0 9994 2 43075 86.3920 284.4983 0002241 90.4355 269.7098 14.34217772456983 IRIDIUM 137 1 43076U 17083G 26258.48910980 .00000031 00000+0 40499-5 0 9995 2 43076 86.3920 284.4124 0001947 96.6465 263.4952 14.34217824457117 IRIDIUM 141 1 43077U 17083H 26258.06415628 .00000029 00000+0 32172-5 0 9995 2 43077 86.3915 284.4157 0002295 92.6465 267.4994 14.34217919457059 IRIDIUM 153 1 43078U 17083J 26257.94656457 .00000012 00000+0 -29462-5 0 9990 2 43078 86.3910 252.9256 0002430 88.6305 271.5170 14.34217360458147 IRIDIUM 131 1 43079U 17083K 26258.05147055 -.00000063 00000+0 -29583-4 0 9993 2 43079 86.3924 284.6130 0002105 93.4861 266.6576 14.34217416456983 IRIDIUM 144 1 43249U 18030A 26257.95290926 .00000086 00000+0 23485-4 0 9997 2 43249 86.3908 252.8499 0002180 88.0313 272.1133 14.34218095443008 IRIDIUM 149 1 43250U 18030B 26258.44763169 .00000026 00000+0 22191-5 0 9996 2 43250 86.3907 252.6088 0002340 89.8074 270.3390 14.34217490443094 IRIDIUM 157 1 43251U 18030C 26257.55966808 -.00000020 00000+0 -14346-4 0 9991 2 43251 86.3911 253.0358 0002169 88.6594 271.4851 14.34216620442949 IRIDIUM 140 1 43252U 18030D 26258.41591647 .00000137 00000+0 41920-4 0 9998 2 43252 86.3912 252.6899 0002176 87.7640 272.3805 14.34217693443127 IRIDIUM 145 1 43253U 18030E 26258.26369576 .00000088 00000+0 24386-4 0 9998 2 43253 86.3909 252.7254 0002045 85.3496 274.7934 14.34217625443032 IRIDIUM 146 1 43254U 18030F 26258.45397065 .00000148 00000+0 45669-4 0 9998 2 43254 86.3909 252.6578 0002127 86.7387 273.4052 14.34217459443072 IRIDIUM 148 1 43255U 18030G 26258.42226071 .00000016 00000+0 -11956-5 0 9992 2 43255 86.3911 252.7155 0002124 91.6020 268.5419 14.34217319443105 IRIDIUM 142 1 43256U 18030H 26258.46031410 .00000020 00000+0 16557-6 0 9995 2 43256 86.3908 252.5852 0002122 88.3837 271.7602 14.34217543443076 IRIDIUM 150 1 43257U 18030J 26258.42860162 .00000000 00000+0 -72260-5 0 9997 2 43257 86.3909 252.7177 0002222 87.3633 272.7817 14.34217531443092 IRIDIUM 143 1 43258U 18030K 26257.99096132 .00000005 00000+0 -52606-5 0 9994 2 43258 86.3916 252.9971 0002136 86.8888 273.2553 14.34217282442966 IRIDIUM 161 1 43478U 18047C 26258.36841306 .00000232 00000+0 63078-4 0 9994 2 43478 86.4463 50.7300 0002274 95.7778 264.3682 14.43280505438145 IRIDIUM 152 1 43479U 18047D 26258.38229525 .00000206 00000+0 66533-4 0 9990 2 43479 86.3938 50.5864 0002164 92.1232 268.0211 14.34217627435410 IRIDIUM 147 1 43480U 18047E 26258.38864369 .00000174 00000+0 55235-4 0 9994 2 43480 86.3939 50.5906 0002031 90.5649 269.5779 14.34213083435414 IRIDIUM 110 1 43481U 18047F 26257.83683179 .00000137 00000+0 41961-4 0 9992 2 43481 86.3942 50.9157 0002332 96.3610 263.7852 14.34218554435323 IRIDIUM 162 1 43482U 18047G 26258.43143301 .00000265 00000+0 72895-4 0 9990 2 43482 86.4462 50.5937 0002187 90.7546 269.3905 14.43280224438145 IRIDIUM 160 1 43569U 18061A 26258.48035162 .00000043 00000+0 81172-5 0 9995 2 43569 86.4007 19.0344 0002167 95.5669 264.5774 14.34217177426319 IRIDIUM 166 1 43570U 18061B 26257.94757309 .00000031 00000+0 41517-5 0 9997 2 43570 86.4000 19.2066 0001980 94.0650 266.0772 14.34216837426264 IRIDIUM 158 1 43571U 18061C 26258.40424178 .00000188 00000+0 60117-4 0 9994 2 43571 86.4006 19.0255 0002185 93.0043 267.1403 14.34218275426296 IRIDIUM 165 1 43572U 18061D 26257.59238988 .00000058 00000+0 13710-4 0 9999 2 43572 86.4008 19.4127 0002090 93.0836 267.0599 14.34217448426203 IRIDIUM 155 1 43573U 18061E 26258.32178792 .00000044 00000+0 86353-5 0 9997 2 43573 86.4004 18.9727 0002151 91.5168 268.6275 14.34217420426274 IRIDIUM 154 1 43574U 18061F 26258.30275947 .00000294 00000+0 98013-4 0 9998 2 43574 86.4001 19.1189 0001932 93.1687 266.9730 14.34218295426321 IRIDIUM 163 1 43575U 18061G 26258.28373259 .00000066 00000+0 16669-4 0 9995 2 43575 86.4004 19.0388 0002217 95.1332 265.0117 14.34217510426295 IRIDIUM 156 1 43576U 18061H 26257.90951611 .00000162 00000+0 50934-4 0 9998 2 43576 86.4003 19.2029 0002146 90.0809 270.0633 14.34217117426239 IRIDIUM 164 1 43577U 18061J 26257.96025959 .00000038 00000+0 66282-5 0 9998 2 43577 86.4005 19.2232 0002011 94.2057 265.9369 14.34217512426283 IRIDIUM 159 1 43578U 18061K 26258.27738931 .00000026 00000+0 23538-5 0 9999 2 43578 86.4001 19.0261 0002101 95.3457 264.7979 14.34217326426294 IRIDIUM 180 1 43922U 19002A 26258.13734913 .00000152 00000+0 47063-4 0 9997 2 43922 86.3980 316.0185 0002212 95.8894 264.2555 14.34217814401885 IRIDIUM 176 1 43923U 19002B 26258.42010558 .00000551 00000+0 83413-4 0 9994 2 43923 86.6099 315.8310 0002384 92.6243 267.5247 14.72247010412520 IRIDIUM 168 1 43924U 19002C 26258.41007795 .00000144 00000+0 44245-4 0 9991 2 43924 86.3984 315.9843 0002239 95.5247 264.6204 14.34217165401905 IRIDIUM 173 1 43925U 19002D 26258.11832059 .00000065 00000+0 16225-4 0 9997 2 43925 86.3979 315.9912 0002263 93.9569 266.1885 14.34217467401843 IRIDIUM 169 1 43926U 19002E 26258.53563062 .00000234 00000+0 69985-4 0 9998 2 43926 86.4282 347.4400 0002361 85.1003 275.0465 14.38611221403215 IRIDIUM 172 1 43927U 19002F 26258.46082227 .00000175 00000+0 55321-4 0 9993 2 43927 86.3978 315.8564 0002241 95.2612 264.8840 14.34217946401901 IRIDIUM 175 1 43928U 19002G 26258.38393213 .00000110 00000+0 26510-4 0 9992 2 43928 86.4464 252.7990 0001178 316.4693 43.6414 14.43645698411999 IRIDIUM 171 1 43929U 19002H 26258.44179345 .00000101 00000+0 28875-4 0 9994 2 43929 86.3988 316.1805 0002138 93.2306 266.9134 14.34217281401898 IRIDIUM 170 1 43930U 19002J 26258.15441021 .00000517 00000+0 78134-4 0 9991 2 43930 86.6100 315.9438 0002488 94.4225 265.7277 14.72258453412490 IRIDIUM 167 1 43931U 19002K 26258.15637537 .00000164 00000+0 51508-4 0 9995 2 43931 86.3980 316.0068 0002098 89.3079 270.8357 14.34217513401856 IRIDIUM 181 1 56726U 23068S 26258.30399220 .00000231 00000+0 62556-4 0 9999 2 56726 86.4542 19.1105 0002116 98.4485 261.6956 14.43311522175433 IRIDIUM 177 1 56727U 23068T 26258.47056304 .00000515 00000+0 69197-4 0 9994 2 56727 86.1921 285.9563 0002590 91.7433 268.4083 14.77164835179719 IRIDIUM 174 1 56728U 23068U 26258.41391891 .00000544 00000+0 82401-4 0 9997 2 56728 86.6108 315.9919 0002678 92.2227 267.9297 14.72259446179297 IRIDIUM 178 1 56729U 23068V 26258.23244468 .00000776 00000+0 99187-4 0 9991 2 56729 86.6597 347.7584 0002545 93.7858 266.3655 14.80039378179683 IRIDIUM 179 1 56730U 23068W 26258.29467069 .00000856 00000+0 10966-3 0 9999 2 56730 86.6838 356.9733 0002365 91.0967 269.0525 14.80051849179697